Location: Arbon
(43.0005°N, 0.7472°E)
Time: 18:21:49
(UTC+00:00)

Vanguard 1 Rocket - All Passes

Search period start: 04 December 2020 00:00
Search period end: 14 December 2020 00:00
Orbit: 656 x 4221 km, 34.3° (Epoch: 03 December)

Date Brightness Start Highest point End Pass type
(mag) Time Alt. Az. Time Alt. Az. Time Alt. Az.
04 Dec - 01:43:36 10° WSW 02:09:33 67° S 02:27:59 10° E visible
04 Dec - 04:16:36 10° W 04:39:48 56° SSW 04:53:16 10° SE visible
04 Dec - 06:52:07 10° W 07:05:41 25° SW 07:14:27 10° S daylight
04 Dec - 19:47:36 10° SSE 19:56:38 14° ESE 20:06:36 10° E visible
04 Dec - 22:03:22 10° SSW 22:23:48 42° SE 22:45:52 10° E visible
05 Dec - 00:29:35 10° WSW 00:54:45 64° SSE 01:15:43 10° E visible
05 Dec - 03:00:57 10° W 03:26:19 65° SSW 03:42:25 10° ESE visible
05 Dec - 05:35:15 10° W 05:54:23 39° SW 06:05:45 10° SSE visible
05 Dec - 20:53:30 10° S 21:10:31 30° SE 21:30:27 10° E visible
05 Dec - 23:16:42 10° SW 23:39:57 57° SSE 00:02:42 10° E visible
06 Dec - 01:45:58 10° WSW 02:11:58 68° S 02:30:51 10° ESE visible
06 Dec - 04:19:02 10° W 04:42:04 52° SSW 04:55:53 10° SE visible
06 Dec - 06:55:31 10° W 07:07:32 21° SW 07:15:55 10° S daylight
06 Dec - 19:45:59 10° SSE 19:58:07 19° SE 20:12:27 10° E visible
06 Dec - 22:05:01 10° SSW 22:25:37 47° SSE 22:48:47 10° E visible
07 Dec - 00:31:53 10° WSW 00:57:03 67° S 01:18:33 10° E visible
07 Dec - 03:03:23 10° W 03:28:41 62° SSW 03:45:10 10° ESE visible
07 Dec - 05:37:56 10° W 05:56:22 34° SW 06:07:53 10° SSE visible
07 Dec - 20:54:39 10° SSW 21:12:07 36° SE 21:33:40 10° E visible
07 Dec - 23:18:52 10° SW 23:42:03 61° SSE 00:05:29 10° E visible
08 Dec - 01:48:25 10° W 02:14:20 67° S 02:33:39 10° ESE visible
08 Dec - 04:21:31 10° W 04:44:12 47° SSW 04:58:21 10° SE visible
08 Dec - 06:59:37 10° W 07:09:16 16° WSW 07:16:37 10° SSW daylight
08 Dec - 19:46:00 10° S 19:59:36 24° SE 20:16:44 10° E visible
08 Dec - 22:06:57 10° SW 22:27:31 53° SSE 22:51:33 10° E visible
09 Dec - 00:34:20 10° WSW 00:59:21 68° S 01:21:20 10° E visible
09 Dec - 03:05:51 10° W 03:30:56 58° SSW 03:47:48 10° SE visible
09 Dec - 05:40:51 10° W 05:58:11 29° SW 06:09:42 10° S visible
09 Dec - 18:41:38 10° SE 18:47:58 12° ESE 18:55:09 10° E visible
09 Dec - 20:56:13 10° SSW 21:13:49 41° SE 21:36:36 10° E visible
09 Dec - 23:21:13 10° WSW 23:44:13 65° SSE 00:08:13 10° E visible
10 Dec - 01:50:56 10° W 02:16:40 66° SSW 02:36:21 10° ESE visible
10 Dec - 04:24:06 10° W 04:46:10 42° SW 05:00:35 10° SSE visible
10 Dec - 07:05:27 10° WSW 07:10:52 12° WSW 07:15:34 10° SW daylight
10 Dec - 19:46:53 10° S 20:01:08 29° SE 20:20:16 10° E visible
10 Dec - 22:09:08 10° SW 22:29:30 57° SSE 22:54:14 10° E visible
11 Dec - 00:36:52 10° WSW 01:01:40 69° S 01:24:03 10° ESE visible
11 Dec - 03:08:22 10° W 03:33:04 54° SSW 03:50:16 10° SE visible
11 Dec - 05:44:08 10° W 05:59:52 24° SW 06:11:04 10° S visible
11 Dec - 18:39:57 10° SSE 18:49:27 17° ESE 19:01:21 10° E visible
11 Dec - 20:58:08 10° SSW 21:15:37 47° SE 21:39:21 10° E visible
11 Dec - 23:23:43 10° WSW 23:46:28 67° S 00:10:53 10° E visible
12 Dec - 01:53:30 10° W 02:18:54 63° SSW 02:38:57 10° ESE visible
12 Dec - 04:26:49 10° W 04:47:59 37° SW 05:02:33 10° SSE visible
12 Dec - 19:48:19 10° SSW 20:02:47 34° SE 20:23:21 10° E visible
12 Dec - 22:11:31 10° SW 22:31:36 61° SSE 22:56:52 10° E visible
13 Dec - 00:39:29 10° W 01:03:58 68° S 01:26:42 10° ESE visible
13 Dec - 03:10:57 10° W 03:35:02 49° SSW 03:52:33 10° SE visible
13 Dec - 05:48:01 10° W 06:01:26 19° SW 06:11:44 10° SSW visible
13 Dec - 18:40:11 10° S 18:50:59 22° SE 19:05:39 10° E visible
13 Dec - 21:00:19 10° SW 21:17:33 52° SSE 21:41:58 10° E visible
